Theta_e
323 323 321 321 320 320 320 319 319 318 318 317 317 317 316 316 316 318 321 323 322 320 320 320 322 323 324 326 325 325 325 325 326 327 326 326 327 327 327 326 325 325 326 326 326 327 329 329 325 323 321 321 322 323 326 327 326 325 324 324 325 325 325
322 321 321 320 320 320 320 319 319 318 317 316 315 314 314 314 313 314 318 320 319 318 317 318 319 321 323 324 323 322 322 321 323 325 326 326 326 326 326 324 322 322 323 324 322 321 324 327 326 321 317 316 316 318 321 323 322 322 321 321 321 321 322
321 320 321 320 320 320 320 319 318 318 318 316 314 313 313 311 309 311 314 315 314 314 315 316 317 319 321 322 321 319 318 318 318 320 322 324 325 325 324 322 319 319 319 318 317 318 318 319 320 318 314 314 315 315 315 315 315 314 315 315 316 317 319
320 320 320 321 320 320 319 318 316 316 316 315 314 313 312 310 309 309 310 311 311 312 313 315 316 318 319 319 318 317 317 317 317 317 319 322 322 321 320 318 317 316 315 314 314 316 316 316 318 317 313 313 313 311 310 308 307 308 309 310 312 313 315
320 318 319 321 320 320 319 317 315 314 314 314 314 314 313 313 311 310 311 312 312 311 312 313 314 316 316 316 315 315 315 316 315 316 317 317 318 317 316 316 315 314 314 313 313 313 313 314 317 315 312 312 312 311 310 309 307 306 306 308 309 309 310
320 317 317 320 321 320 319 316 313 314 314 314 315 315 314 314 313 313 313 313 312 310 308 309 312 315 316 315 314 314 315 315 315 314 315 314 315 315 315 314 314 313 312 311 311 311 311 311 311 312 311 311 311 311 311 310 310 308 305 305 306 306 307
320 317 316 319 320 320 318 315 313 313 314 314 315 315 315 315 314 315 314 314 313 312 309 308 309 312 314 315 315 314 314 314 313 313 313 313 313 314 314 313 312 312 310 310 310 309 309 308 309 310 310 310 310 310 310 309 309 310 307 304 304 304 304
321 318 316 318 320 319 317 315 313 312 313 314 314 315 315 315 314 315 315 314 314 313 312 310 307 307 308 311 313 313 314 313 312 312 311 311 312 312 312 311 311 310 310 309 309 308 308 307 307 308 308 310 310 309 309 308 307 307 307 305 303 302 302
321 318 317 318 319 318 317 316 314 312 312 313 313 314 314 315 314 314 314 314 314 313 314 313 310 307 305 306 308 310 312 313 312 311 309 308 308 308 308 309 309 309 308 308 307 307 307 307 306 306 306 309 309 310 311 311 309 307 305 304 303 301 300
321 318 316 318 319 317 316 316 314 313 312 312 312 313 313 313 313 313 312 313 314 314 314 314 313 311 309 307 306 307 310 312 312 311 309 306 306 306 306 307 308 308 307 307 306 306 306 306 305 305 305 305 306 312 316 314 309 307 304 303 302 299 298
320 318 316 318 317 315 315 315 314 312 313 312 311 311 311 311 311 311 310 311 312 312 314 315 314 313 312 311 309 308 309 310 310 311 310 308 306 305 306 306 307 307 307 306 306 306 306 306 305 305 304 303 303 307 311 311 309 306 304 302 300 298 297
319 317 317 318 317 314 313 314 312 311 312 311 310 309 309 310 310 309 310 309 309 310 311 313 314 314 313 313 312 311 311 310 309 309 309 309 308 306 306 307 306 307 307 306 306 306 306 306 305 304 302 302 302 302 304 306 307 305 303 301 298 296 297
318 318 318 319 317 315 313 312 312 311 311 311 310 309 309 310 310 310 311 312 311 310 309 311 313 313 313 313 313 313 312 312 310 309 309 309 309 307 306 306 307 307 307 307 307 307 306 306 305 303 302 301 302 301 301 302 303 304 302 300 297 297 297
319 318 319 319 317 316 315 314 313 314 314 314 313 312 312 312 312 313 313 314 315 313 311 311 311 312 313 313 313 313 313 313 312 311 311 310 310 308 307 308 307 307 307 307 307 307 306 306 306 304 303 302 302 302 302 301 300 300 300 298 297 298 299
320 319 320 319 318 317 317 316 316 316 317 317 317 316 315 315 314 315 315 315 316 316 315 314 312 312 313 313 313 313 313 313 313 313 312 312 311 309 308 309 309 308 306 305 306 307 306 306 306 304 303 303 303 303 303 303 301 300 299 298 299 300 300
320 320 320 320 319 318 318 318 316 317 318 318 318 317 317 317 317 316 316 316 316 316 316 316 315 314 314 313 313 313 314 314 313 313 313 313 313 311 310 309 310 309 308 307 307 307 306 306 305 305 304 303 304 304 305 306 306 303 301 301 301 301 300
320 320 320 320 319 318 318 317 316 317 318 318 318 318 318 318 317 317 317 317 317 317 317 317 317 317 316 315 314 314 314 314 313 314 314 313 313 313 312 311 311 310 309 309 308 307 307 307 306 305 305 304 304 304 304 306 307 306 304 302 301 301 300
321 320 320 320 318 318 318 318 317 318 318 318 318 318 319 319 318 318 318 318 318 318 318 317 317 318 318 317 317 316 315 314 314 314 314 314 314 313 313 313 312 312 310 310 309 308 308 307 307 307 305 304 304 304 303 303 304 305 304 303 301 301 300
320 320 319 319 318 318 318 318 318 319 318 318 319 318 319 319 318 318 318 317 318 318 318 318 318 318 318 318 317 317 317 315 315 315 315 314 314 313 313 314 313 313 312 311 310 309 309 308 308 307 306 305 305 304 303 302 302 303 304 303 301 301 300
320 319 319 318 318 318 319 319 319 319 319 318 318 318 318 318 318 318 318 318 318 318 318 317 317 317 318 318 317 317 318 316 316 316 317 316 315 314 314 314 313 313 313 313 311 310 309 309 308 308 307 305 305 304 304 302 302 303 303 302 302 301 300
319 319 318 318 318 318 319 318 318 318 319 319 319 319 319 319 319 319 318 318 318 318 318 317 317 318 318 318 318 318 318 317 316 317 318 318 317 316 316 315 314 314 313 313 313 312 310 310 309 308 307 306 305 305 304 303 302 303 302 302 301 301 300
319 319 319 319 319 318 318 318 318 318 318 319 319 319 319 318 318 318 318 318 318 318 317 318 318 318 319 318 318 318 318 318 318 318 318 319 318 317 316 316 315 314 314 314 313 313 312 310 309 309 307 306 306 306 305 303 302 302 302 301 300 300 299
320 319 319 318 318 319 319 319 319 318 318 319 319 318 318 318 319 319 319 319 318 318 319 319 319 319 319 319 319 318 318 318 319 319 318 318 318 318 316 316 315 315 314 314 313 313 312 310 309 308 307 306 306 305 304 302 302 302 302 301 300 299 298
319 318 318 317 317 317 317 318 319 319 319 319 319 319 318 318 318 319 320 319 319 320 320 320 320 320 320 320 320 319 319 319 320 319 319 318 318 317 316 316 315 314 314 313 312 312 311 309 308 307 306 305 305 304 303 302 302 302 301 300 299 298 297
317 317 316 315 314 314 315 316 316 317 317 316 315 315 315 315 316 317 318 319 319 320 321 321 321 321 321 321 320 320 319 320 319 319 319 319 318 318 317 316 316 316 315 314 312 311 309 308 307 306 305 305 304 303 302 302 302 301 300 299 298 298 297
314 313 312 310 310 311 311 312 312 312 312 312 311 312 312 313 313 314 314 315 317 319 320 321 321 321 321 320 319 319 319 319 319 319 319 318 318 318 318 317 317 317 315 314 312 310 309 307 306 305 304 303 303 302 302 302 301 300 299 298 298 297 297
309 309 309 308 308 309 309 309 310 310 310 310 310 310 310 310 310 311 311 311 312 315 318 320 321 321 320 319 318 318 317 317 318 318 318 318 318 317 317 316 315 314 313 312 310 308 307 306 305 304 303 303 302 302 301 301 300 299 298 298 297 296 296
308 308 308 308 308 308 309 309 309 309 309 309 309 309 309 309 309 309 309 309 308 309 312 316 319 320 319 318 317 316 316 316 317 317 317 316 316 316 315 313 312 310 310 308 307 305 305 304 303 303 303 302 302 301 300 299 299 298 297 296 295 295 294
308 308 308 308 309 308 309 309 309 309 309 309 309 310 309 309 309 309 309 308 308 308 309 312 316 318 318 316 316 315 314 315 315 315 315 314 313 312 311 310 309 308 307 305 304 303 304 304 303 303 303 302 301 300 299 298 297 296 295 295 294 294 293
307 308 308 308 309 309 309 309 309 309 309 309 309 309 309 309 309 309 309 308 309 309 310 312 314 316 315 314 314 314 313 314 314 313 312 310 309 308 307 307 307 306 304 303 303 303 303 303 303 303 302 301 300 299 298 297 296 295 294 294 293 293 292
307 307 308 308 308 309 309 309 309 309 309 309 309 309 309 309 309 309 308 308 308 308 310 312 313 314 313 313 313 313 313 313 312 311 309 307 305 305 304 304 304 304 304 303 303 303 303 303 303 302 302 301 299 297 296 295 294 293 293 292 292 292 291
306 306 306 307 307 308 309 309 309 309 309 309 309 309 308 308 308 308 308 307 308 309 310 312 312 312 311 311 311 311 311 311 310 308 307 305 304 303 302 302 302 303 303 303 303 303 302 302 301 300 299 298 297 295 294 294 293 292 292 292 291 291 291
305 306 305 306 307 308 309 309 308 308 308 307 307 307 307 307 306 307 307 308 309 309 310 310 311 311 310 310 310 309 309 309 309 307 306 305 304 303 302 302 301 301 301 301 301 300 300 300 299 298 296 295 294 293 293 292 292 292 291 291 291 290 290
306 306 305 306 306 307 307 307 307 307 307 306 306 306 306 306 306 307 307 308 309 309 309 309 309 309 309 309 308 308 307 308 308 307 305 304 304 303 302 301 301 300 300 299 299 298 297 297 296 295 294 294 293 292 292 292 291 291 291 290 290 290 290
306 305 305 306 306 306 306 307 306 306 306 306 306 305 306 306 306 307 307 308 308 308 308 307 307 307 306 306 306 306 305 305 305 305 304 303 302 301 300 300 299 299 298 297 297 296 296 295 294 293 293 292 292 292 291 291 291 290 290 290 289 289 289
305 305 306 305 305 306 306 306 306 306 306 306 306 305 306 306 307 307 307 307 307 307 307 306 305 304 304 303 303 303 303 304 304 303 303 301 300 299 298 297 297 297 296 296 295 295 294 293 293 293 292 292 291 291 291 290 290 289 289 289 289 288 288
305 305 305 305 305 306 306 305 306 306 305 305 305 305 306 306 307 307 307 307 306 306 306 305 303 303 302 302 302 302 302 303 302 302 301 300 299 298 297 296 296 295 295 294 294 293 293 293 292 292 292 291 291 290 290 289 289 289 288 288 288 288 288
Wind_Speed
14 13 12 10 10 10 11 10 9 8 8 7 6 6 6 6 5 4 4 4 4 3 1 2 3 4 4 4 5 5 4 3 1 3 5 4 4 3 2 1 2 4 6 5 5 4 3 2 2 5 9 10 8 6 3 3 6 5 5 5 4 4 5
13 13 13 12 12 12 11 10 9 8 7 7 7 7 7 6 5 4 5 5 4 2 2 2 3 3 3 4 5 5 5 6 5 3 4 4 4 5 4 3 4 5 5 5 5 5 5 3 1 2 7 11 13 13 11 9 11 9 7 8 7 7 5
13 13 14 13 13 12 11 9 8 7 7 7 8 9 8 7 5 4 4 4 3 2 3 3 4 4 4 4 5 6 6 6 6 5 5 6 5 5 6 6 6 6 6 7 8 9 8 7 4 2 5 9 11 16 20 20 20 18 16 14 14 14 12
15 15 15 15 14 12 11 10 9 8 8 9 10 9 8 8 7 7 6 6 5 5 5 5 5 5 5 5 5 5 5 6 6 7 8 9 9 9 9 8 8 9 9 8 8 8 7 6 5 3 6 11 12 16 22 25 25 23 21 21 20 20 19
15 16 17 17 15 13 12 11 11 11 11 12 11 9 8 8 8 9 9 9 9 8 7 6 5 5 5 5 5 6 6 7 7 8 10 10 9 10 11 11 11 12 12 11 10 9 8 7 7 5 5 9 10 11 15 20 24 25 24 23 22 22 21
16 16 17 17 16 14 13 13 13 13 13 13 11 9 8 7 7 8 9 9 9 9 9 8 7 6 5 6 7 8 9 9 9 8 10 10 10 10 11 12 12 13 14 13 11 11 10 9 9 7 5 7 7 7 9 11 15 19 24 24 21 20 20
16 15 16 17 16 14 13 12 12 13 13 12 10 9 7 6 6 7 7 8 8 9 9 9 8 6 6 6 7 9 9 9 8 8 9 10 10 10 10 11 12 13 14 13 13 13 13 12 10 7 7 8 8 8 8 10 11 12 16 21 22 20 19
16 15 15 15 14 14 13 11 11 11 11 10 9 8 7 6 5 5 5 5 6 7 8 8 8 6 6 6 7 8 9 8 8 9 10 10 10 9 9 10 12 13 13 12 13 14 14 15 13 9 9 7 6 5 6 10 15 14 12 15 20 21 19
17 15 15 15 13 13 12 10 9 10 10 10 9 8 6 5 3 3 2 2 3 4 4 5 7 6 6 6 7 8 8 8 8 9 10 10 10 10 9 10 12 13 13 12 13 13 14 15 16 14 10 8 6 4 2 4 8 12 13 14 17 20 20
17 15 15 14 13 12 11 9 9 9 9 9 8 8 7 5 4 2 1 0 0 1 2 2 4 5 5 6 6 7 8 7 7 9 9 10 11 10 11 12 12 13 12 12 13 13 13 14 15 17 16 11 8 5 2 2 2 5 12 15 16 18 19
17 16 15 14 13 13 12 10 9 9 8 8 7 7 7 7 5 3 1 2 3 2 2 1 1 3 4 4 5 6 6 6 6 7 8 9 10 10 11 12 12 12 11 12 14 14 13 14 14 16 17 16 14 10 5 3 1 4 9 13 15 17 17
18 16 15 15 14 13 12 10 9 9 8 7 7 7 7 7 6 4 3 2 3 4 4 3 2 2 2 2 3 3 4 4 4 6 6 7 8 9 10 10 10 10 9 10 11 12 11 12 13 14 15 15 16 15 11 7 3 3 7 10 13 15 16
19 18 17 16 15 14 12 10 9 9 8 7 7 6 6 6 5 4 3 3 3 4 5 5 5 4 3 3 2 1 1 2 3 3 4 5 6 6 8 8 8 8 7 7 8 8 9 9 10 12 13 14 16 15 14 12 7 4 6 9 12 14 15
21 20 19 18 17 16 14 11 10 9 9 9 8 7 7 7 6 5 5 4 4 5 6 7 7 7 6 5 4 3 2 1 1 1 2 3 4 4 5 6 6 6 5 4 5 5 6 6 7 9 10 11 14 13 13 13 10 6 5 8 10 13 14
21 20 19 18 17 17 16 14 12 11 10 9 8 8 8 8 8 8 8 8 7 7 7 8 9 10 9 8 8 7 6 5 4 4 3 2 3 4 4 4 4 5 4 3 3 3 4 4 4 5 7 7 10 12 12 12 10 8 7 8 10 12 14
20 20 19 18 17 17 17 16 14 13 13 12 10 10 9 9 10 11 11 11 11 10 10 11 11 12 12 12 11 10 9 9 8 8 7 6 5 5 5 4 4 4 4 3 3 3 3 3 2 3 5 5 7 9 11 11 11 10 9 9 10 12 14
16 18 19 19 17 17 18 17 16 16 16 14 11 9 10 10 10 11 14 14 14 13 13 14 14 14 14 15 14 14 14 13 12 11 10 9 8 7 7 7 6 6 5 5 4 3 3 3 1 2 3 4 5 7 9 11 11 11 10 10 10 12 14
15 17 19 19 18 17 17 17 16 16 15 13 11 10 12 14 14 13 14 15 16 17 17 18 17 17 17 18 17 17 18 18 16 14 13 12 12 11 10 9 9 8 8 8 7 6 5 4 3 1 2 3 4 6 8 9 10 10 10 10 10 10 13
15 18 19 18 17 17 16 15 15 14 13 12 12 12 13 14 15 14 14 14 16 18 19 20 20 20 20 21 20 20 21 22 21 17 15 15 14 14 13 12 11 11 11 11 10 9 8 6 5 3 1 1 2 4 6 8 9 9 9 10 9 10 12
15 17 16 16 16 14 11 11 11 11 11 11 11 11 11 11 11 11 12 13 15 17 18 19 19 20 20 20 21 20 21 24 24 21 18 17 16 16 16 15 14 14 14 14 13 12 11 9 7 5 4 2 1 2 5 6 7 7 8 8 8 10 11
15 15 15 14 12 10 7 7 8 8 8 9 9 9 9 9 10 11 12 13 15 16 17 18 18 19 18 17 18 19 19 22 23 20 18 19 19 19 18 17 17 17 17 16 14 13 13 12 9 7 6 4 3 1 3 5 5 6 7 7 7 8 10
14 14 13 10 8 7 7 9 10 10 9 9 10 9 10 11 12 14 15 15 16 17 18 19 19 19 18 17 18 18 18 18 19 17 18 19 20 20 20 19 19 19 19 18 16 15 15 15 12 10 8 6 5 4 4 4 5 6 6 7 8 8 10
12 11 10 8 5 4 6 8 9 9 9 9 9 8 9 10 11 12 13 13 13 14 15 15 16 16 17 17 17 18 17 17 17 17 17 18 19 19 19 19 19 20 19 19 19 19 17 16 13 9 7 6 5 4 4 4 5 5 6 7 8 9 11
11 10 9 7 5 4 4 4 4 4 5 4 4 4 4 5 7 8 10 10 10 10 10 10 9 10 11 12 14 16 16 15 15 15 16 16 16 16 16 16 17 18 19 19 21 21 17 15 13 9 7 6 5 4 4 3 3 4 5 6 7 8 9
10 10 8 7 6 5 5 5 6 6 5 4 3 2 1 1 3 4 5 6 7 8 9 8 6 5 6 7 8 10 11 12 12 13 14 14 14 14 14 13 14 15 16 18 20 19 16 15 13 11 9 7 5 4 3 3 4 4 5 5 6 7 7
11 12 11 11 10 10 9 9 9 9 8 7 6 5 4 3 3 4 4 5 5 5 5 5 3 3 4 5 4 4 6 7 9 10 11 12 12 13 13 13 13 14 15 15 16 16 17 17 15 12 9 6 4 3 3 5 5 5 5 5 6 7 7
14 14 13 13 12 12 12 11 11 10 8 7 5 4 3 3 4 5 6 7 8 7 6 5 3 2 4 4 3 3 4 6 8 9 10 10 11 11 11 11 11 11 11 11 13 17 19 17 14 11 7 4 2 3 4 5 5 5 5 6 8 8 8
11 11 11 10 11 11 11 10 9 8 6 5 4 2 1 2 4 5 7 8 8 8 8 6 5 3 3 3 3 3 4 6 8 9 9 9 9 9 8 7 7 7 8 10 14 18 16 13 10 7 4 3 3 4 4 5 5 7 7 8 9 9 11
9 9 9 9 10 11 11 10 9 8 7 6 5 4 3 2 3 4 5 5 6 6 7 7 6 4 3 3 3 3 4 5 6 7 7 6 6 5 4 3 4 7 10 14 15 12 10 8 6 4 3 3 3 4 5 6 7 8 9 9 10 11 11
9 9 10 10 11 11 10 10 9 9 8 7 6 5 4 3 4 4 4 4 4 5 5 6 5 4 3 3 2 3 4 5 4 4 3 3 2 2 2 3 6 10 13 14 11 8 6 5 4 3 3 3 4 5 6 7 8 8 9 10 10 10 10
7 8 8 9 9 9 9 8 8 8 7 6 5 5 4 4 4 3 3 3 3 4 4 4 4 3 2 2 2 2 3 3 2 2 1 1 3 5 7 7 8 9 10 9 7 6 5 4 4 4 4 5 5 5 5 6 7 7 8 8 9 9 10
3 4 4 5 6 6 7 7 7 6 6 5 5 5 4 3 2 2 2 3 3 3 2 3 3 3 2 2 2 3 3 4 4 4 5 5 6 7 8 8 7 6 6 6 5 5 4 4 4 4 5 5 5 5 5 6 7 7 8 9 10 11 12
3 2 1 2 4 5 5 6 5 5 5 5 4 4 3 2 3 3 3 3 3 2 2 1 2 2 2 2 3 4 5 5 4 5 7 7 8 8 8 7 6 5 5 4 4 4 4 4 4 3 4 4 4 4 5 6 7 8 10 11 12 13 14
7 6 5 3 4 4 4 4 3 3 3 3 3 3 3 3 3 4 3 3 3 3 2 1 1 2 3 3 4 6 8 6 4 5 7 8 8 8 8 7 6 5 4 3 3 2 1 2 2 3 3 4 4 4 5 6 8 9 11 12 13 14 15
9 8 7 6 5 5 5 4 3 2 1 1 1 2 3 3 3 3 3 3 3 3 3 2 2 2 3 4 5 6 7 6 4 4 6 7 8 8 8 8 7 5 4 3 2 1 1 2 2 2 3 3 3 4 6 7 9 10 11 13 14 15 16
12 11 10 9 8 8 7 6 5 4 3 3 2 2 3 4 4 4 4 3 4 4 4 3 3 3 4 5 6 6 5 5 4 4 5 7 8 9 9 8 7 5 4 3 2 2 1 1 2 2 2 3 3 5 7 8 10 11 12 13 14 15 16
15 14 13 12 11 10 9 8 8 7 6 5 5 5 6 6 7 6 6 6 6 6 6 6 6 6 5 6 6 6 6 5 5 6 7 8 9 9 9 7 5 4 3 2 2 2 1 1 1 1 1 3 5 6 8 10 11 13 14 14 15 16 17
Wind_Direction
170 165 166 164 158 152 144 138 133 127 124 125 126 125 122 116 110 125 153 167 169 164 130 98 87 77 83 95 93 93 93 87 98 171 175 192 208 195 151 92 97 130 139 147 168 168 143 136 96 75 81 82 75 67 60 42 54 54 34 27 356 322 306
170 165 162 160 157 155 149 142 138 132 126 126 129 128 120 111 111 133 155 168 172 159 117 104 102 90 91 101 95 86 86 87 87 110 147 167 195 196 168 122 107 112 101 93 99 80 70 90 106 57 77 79 66 61 72 77 71 71 62 56 45 25 10
168 166 163 162 161 160 156 150 148 146 140 140 137 129 118 108 107 127 151 160 151 128 118 116 117 112 101 100 95 87 80 75 74 81 104 117 121 122 120 113 104 95 79 63 53 57 66 75 90 69 56 70 66 65 76 83 82 79 75 70 60 53 50
175 174 171 168 168 168 163 155 152 148 144 144 140 128 117 107 101 109 117 114 105 102 111 118 124 125 121 118 109 96 84 71 72 81 91 100 103 102 99 95 89 81 78 70 56 64 81 90 102 88 67 82 87 81 79 78 77 77 75 72 69 67 67
188 186 183 179 177 177 170 160 153 146 141 141 139 130 118 107 98 101 100 95 91 88 95 107 122 127 125 125 117 105 99 95 95 95 94 97 98 98 94 89 86 79 75 72 64 66 79 103 118 109 90 96 94 91 86 77 71 68 67 68 67 67 69
198 196 193 188 185 185 179 168 158 152 148 145 142 136 123 110 99 96 94 91 87 84 85 91 102 117 122 118 113 111 108 104 103 99 97 97 93 93 95 91 85 79 73 70 69 71 76 94 110 106 97 108 112 102 86 77 72 64 59 59 61 61 62
204 203 200 194 189 189 186 175 165 160 156 151 147 142 132 121 108 101 99 96 92 88 85 87 95 110 122 120 114 113 110 106 101 96 95 96 94 94 94 92 86 82 79 76 73 74 75 76 88 112 111 97 101 98 79 70 71 66 54 50 51 54 54
211 211 204 197 194 191 186 178 170 165 160 158 155 150 143 135 120 112 109 100 93 88 84 85 89 101 114 117 117 113 106 101 96 94 94 96 96 94 93 95 93 88 84 82 77 73 72 69 70 99 132 122 92 80 76 70 64 60 54 46 45 45 46
213 214 208 201 199 196 190 183 177 168 161 163 167 166 163 156 143 129 114 101 88 75 74 76 79 89 100 103 110 111 105 103 96 91 91 91 93 95 97 99 98 94 88 83 82 77 75 72 67 75 102 128 130 108 69 62 58 54 50 45 42 40 39
214 218 215 207 204 201 195 190 185 177 166 165 174 179 181 180 174 172 189 237 303 28 38 53 63 71 80 87 96 101 103 105 98 91 87 86 93 98 99 99 98 96 92 86 86 84 81 78 71 68 70 83 110 130 116 57 59 54 47 42 40 36 33
216 220 218 214 210 203 199 198 194 186 176 171 177 182 185 186 180 177 199 255 268 275 296 311 32 38 49 66 80 90 97 101 96 93 87 84 94 102 101 101 101 97 93 88 85 84 83 78 71 68 67 69 78 87 105 119 87 62 54 44 39 33 29
215 217 218 218 216 208 202 201 196 191 185 181 184 185 188 190 186 181 186 226 260 264 265 258 261 313 345 13 38 72 89 93 94 95 93 88 94 104 104 103 102 98 93 89 85 81 79 75 69 68 69 70 72 73 85 105 99 57 55 45 37 32 28
212 212 215 219 220 214 207 201 195 192 186 185 192 193 194 199 201 203 205 217 246 259 257 250 251 262 273 295 316 342 63 85 91 90 97 101 103 109 109 105 104 101 96 91 87 80 76 74 70 68 69 70 70 68 72 83 94 89 62 42 30 29 27
211 210 214 218 222 220 214 207 199 196 191 190 198 205 212 219 224 232 238 243 252 260 261 258 257 261 264 268 272 271 267 233 188 142 122 120 125 133 125 115 112 113 108 93 88 85 81 81 75 71 69 65 66 64 61 71 85 92 67 39 26 25 24
211 212 215 219 225 225 222 218 212 211 210 206 208 216 225 233 241 247 249 253 258 262 265 265 263 266 269 268 267 263 257 249 241 229 217 192 167 168 170 154 136 134 139 123 109 107 98 96 89 75 69 60 61 61 55 60 70 70 56 36 22 21 21
214 216 218 223 228 229 229 226 222 224 227 226 227 234 244 252 259 264 263 261 263 266 267 268 268 269 273 275 275 272 266 260 253 246 239 232 218 207 205 201 186 170 173 172 148 142 135 118 98 77 76 68 62 63 58 52 52 51 44 30 15 13 15
215 216 218 223 227 230 232 230 227 231 237 240 239 242 250 254 259 267 269 271 275 277 276 276 277 278 278 279 279 279 276 270 263 261 255 247 240 234 227 222 219 213 209 209 201 186 181 168 119 76 83 80 66 62 59 49 43 41 36 27 16 10 9
208 209 212 220 226 228 229 230 229 233 237 239 236 235 238 238 238 248 261 273 280 280 278 278 283 289 288 282 279 280 281 276 269 267 265 260 254 249 245 238 233 232 230 227 224 219 210 207 201 146 93 86 67 54 50 43 38 35 30 26 19 8 2
201 203 205 212 219 222 223 225 228 229 231 231 230 231 233 233 237 251 265 276 280 279 275 274 281 290 293 290 284 282 284 280 272 267 268 266 262 259 258 253 247 243 243 241 236 232 225 219 213 203 171 135 87 50 40 33 26 23 22 21 16 5 358
193 193 192 196 201 205 208 214 218 220 222 226 227 229 234 239 252 268 278 280 280 280 276 275 281 288 293 297 294 289 289 283 274 270 271 269 265 264 264 261 257 252 252 252 247 243 236 227 219 215 209 196 169 48 25 18 11 7 8 10 7 1 356
177 172 170 175 182 185 190 212 223 218 213 216 221 228 242 259 275 283 285 283 280 278 277 279 285 289 290 292 293 292 290 281 274 273 277 276 273 268 263 260 259 256 255 255 253 253 249 240 230 220 215 211 210 271 344 351 351 353 354 354 356 357 354
172 170 172 183 201 210 214 226 232 227 221 221 230 246 265 278 286 286 283 280 277 277 280 284 287 287 285 283 284 287 285 278 274 277 279 278 277 273 266 260 259 258 257 255 254 255 253 248 241 231 223 222 230 263 300 320 332 339 339 338 340 347 350
181 183 183 189 208 214 210 220 227 230 233 238 248 264 276 282 286 286 285 285 282 279 284 289 288 283 281 281 282 281 279 276 277 278 277 275 276 276 272 269 266 261 257 253 250 249 247 242 238 233 230 227 234 263 287 302 317 322 324 329 333 341 347
161 162 158 154 156 153 161 181 189 201 218 227 237 247 262 274 279 282 282 281 275 271 277 287 287 283 285 286 283 279 274 274 276 279 280 280 281 283 282 279 274 268 261 252 246 243 237 227 220 216 215 219 232 258 279 295 306 311 317 323 325 332 338
142 143 143 142 144 145 141 135 129 132 135 127 124 121 92 324 311 304 294 286 278 275 279 284 289 301 307 299 289 283 277 275 277 280 282 281 281 284 285 281 278 275 267 256 246 237 222 209 205 207 211 218 231 247 272 297 302 302 305 307 311 319 326
137 133 130 125 121 120 119 115 112 110 108 103 95 83 73 52 27 17 4 354 344 332 317 304 297 302 295 283 280 288 287 282 280 281 282 279 277 279 280 278 277 274 268 260 244 225 209 201 198 199 203 209 219 243 285 300 299 298 302 307 311 314 320
126 124 123 119 116 115 115 112 110 109 105 102 97 86 67 40 28 24 22 17 10 5 360 346 326 291 269 264 267 283 287 284 284 285 285 285 284 284 283 282 278 268 262 250 221 202 195 192 188 185 186 197 233 275 293 298 302 310 313 315 315 317 321
127 128 125 123 124 126 126 124 122 122 120 124 128 120 84 39 32 26 18 12 5 360 357 353 345 319 281 268 268 279 285 285 288 292 292 291 290 287 287 283 265 244 227 202 187 185 184 181 178 178 186 221 260 278 288 298 309 315 318 318 319 322 324
132 135 136 136 138 141 142 141 142 144 147 152 154 145 126 80 47 34 20 11 2 353 346 344 343 331 304 283 270 278 285 283 286 294 300 304 304 300 296 269 223 200 182 169 166 172 176 178 183 196 218 244 267 283 294 303 310 314 317 320 321 322 322
117 123 130 134 138 141 143 143 144 145 144 145 141 130 111 88 72 62 51 36 17 358 339 332 333 326 303 280 257 257 266 266 274 292 308 335 4 54 109 161 176 172 165 160 159 165 176 190 211 231 246 258 273 287 297 306 311 315 318 320 323 325 325
98 108 117 124 130 136 139 140 141 138 135 133 126 113 98 90 84 69 47 23 0 344 323 314 312 306 284 253 230 229 240 233 218 219 209 135 123 126 133 146 159 166 167 165 169 181 197 224 246 255 263 263 264 278 294 303 307 311 315 317 321 321 321
73 91 102 112 121 132 137 137 134 128 124 116 104 96 91 83 66 31 359 338 327 314 292 286 287 284 263 225 214 213 207 193 181 182 182 170 159 152 149 150 155 167 177 180 189 209 228 248 261 266 268 269 275 288 300 307 311 315 318 319 319 319 319
258 245 199 130 128 136 139 133 125 119 111 98 87 78 63 28 354 336 329 323 312 295 275 258 253 258 246 215 210 207 197 185 180 190 195 190 181 174 168 163 161 167 180 187 197 214 231 251 269 276 281 294 306 312 317 321 322 323 323 322 321 320 319
232 228 218 198 170 162 158 147 138 125 104 84 66 41 10 342 327 324 324 317 306 298 293 273 217 210 213 211 215 213 206 201 201 203 199 193 191 187 183 181 183 189 200 205 209 226 260 291 302 308 316 325 331 331 327 324 321 320 320 319 317 316 315
222 219 215 213 207 198 191 186 185 181 160 116 15 351 329 313 305 305 303 295 289 286 282 266 222 193 192 199 205 210 211 212 217 221 211 201 195 189 183 185 191 196 204 216 228 257 296 315 320 328 337 343 339 330 323 319 318 318 317 316 315 314 314
222 222 222 221 219 217 210 208 212 216 217 225 250 274 276 268 263 266 268 264 261 258 252 241 222 200 186 188 191 194 203 214 225 236 237 223 207 196 189 188 187 185 192 208 221 228 249 294 321 342 351 340 327 318 315 316 317 317 317 316 316 315 315
220 223 224 221 220 219 217 217 221 223 225 230 241 248 247 240 238 242 246 244 242 239 234 227 218 208 201 202 203 201 206 215 221 228 232 224 208 198 193 188 182 179 181 176 171 170 158 121 49 26 347 321 315 316 318 321 322 321 321 321 319 318 317